| time (UTC) | temp F | wind direction | speed MPH | gust MPH | rain 1hr in | rain 24hr in | rain mn in | humidity % | barometer mb |
| 20260904025941 | 62 | 169 | 0.0 | 7.0 | 0.00 | 0.00 | 0.00 | 92 | 1014.1 |
| 20260904024954 | 61 | 153 | 2.0 | 4.0 | 0.00 | 0.00 | 0.00 | 92 | 1014.1 |
| 20260904023941 | 62 | 139 | 1.0 | 3.0 | 0.00 | 0.00 | 0.00 | 91 | 1014.4 |
| 20260904022942 | 62 | 147 | 0.0 | 3.0 | 0.00 | 0.00 | 0.00 | 91 | 1013.9 |
| 20260904015945 | 61 | 133 | 1.0 | 2.0 | 0.00 | 0.00 | 0.00 | 90 | 1014.3 |
| 20260904014941 | 62 | 140 | 0.0 | 4.0 | 0.00 | 0.00 | 0.00 | 89 | 1014.1 |
| 20260904011941 | 62 | 69 | 1.0 | 3.0 | 0.00 | 0.00 | 0.00 | 88 | 1014.4 |
| 20260904010941 | 62 | 183 | 2.0 | 7.0 | 0.00 | 0.00 | 0.00 | 87 | 1014.2 |
| 20260904005943 | 62 | 289 | 0.0 | 2.0 | 0.00 | 0.00 | 0.00 | 87 | 1014.5 |
| 20260904004941 | 62 | 138 | 0.0 | 6.0 | 0.00 | 0.00 | 0.00 | 86 | 1014.5 |
| 20260904003942 | 62 | 134 | 0.0 | 6.0 | 0.00 | 0.00 | 0.00 | 87 | 1014.4 |
| 20260903234943 | 62 | 138 | 0.0 | 3.0 | 0.00 | 0.00 | 0.00 | 85 | 1014.7 |
| 20260903233954 | 62 | 198 | 1.0 | 3.0 | 0.00 | 0.00 | 0.00 | 84 | 1014.6 |
| 20260903232941 | 63 | 152 | 0.0 | 4.0 | 0.00 | 0.00 | 0.00 | 83 | 1015.0 |
| 20260903225945 | 64 | 145 | 0.0 | 6.0 | 0.00 | 0.00 | 0.00 | 81 | 1015.0 |
| 20260903223944 | 65 | 195 | 2.0 | 7.0 | 0.00 | 0.00 | 0.00 | 79 | 1015.1 |
| 20260903222944 | 65 | 148 | 1.0 | 6.0 | 0.00 | 0.00 | 0.00 | 78 | 1014.9 |
| 20260903221941 | 64 | 218 | 3.0 | 7.0 | 0.00 | 0.00 | 0.00 | 78 | 1014.8 |
| 20260903220941 | 64 | 151 | 0.0 | 6.0 | 0.00 | 0.00 | 0.00 | 79 | 1015.0 |
| 20260903212943 | 64 | 145 | 0.0 | 3.0 | 0.00 | 0.00 | 0.00 | 79 | 1015.1 |
| 20260903211941 | 64 | 166 | 2.0 | 3.0 | 0.00 | 0.00 | 0.00 | 79 | 1015.1 |
| 20260903210941 | 64 | 120 | 1.0 | 4.0 | 0.00 | 0.00 | 0.00 | 78 | 1015.4 |
| 20260903203941 | 64 | 147 | 0.0 | 2.0 | 0.00 | 0.00 | 0.00 | 79 | 1015.1 |
| 20260903202941 | 64 | 181 | 1.0 | 2.0 | 0.00 | 0.00 | 0.00 | 78 | 1015.3 |
| 20260903201954 | 64 | 147 | 0.0 | 2.0 | 0.00 | 0.00 | 0.00 | 78 | 1015.3 |
| 20260903200940 | 63 | 130 | 0.0 | 1.0 | 0.00 | 0.00 | 0.00 | 80 | 1015.6 |
| 20260903195943 | 63 | 141 | 0.0 | 1.0 | 0.00 | 0.00 | 0.00 | 80 | 1015.8 |
| 20260903194941 | 63 | 137 | 0.0 | 1.0 | 0.00 | 0.00 | 0.00 | 81 | 1015.6 |
| 20260903192943 | 63 | 133 | 1.0 | 2.0 | 0.00 | 0.00 | 0.00 | 79 | 1015.7 |
| 20260903191945 | 63 | 139 | 0.0 | 1.0 | 0.00 | 0.00 | 0.00 | 80 | 1015.7 |
| 20260903190956 | 63 | 141 | 0.0 | 1.0 | 0.00 | 0.00 | 0.00 | 80 | 1015.9 |
| 20260903185941 | 62 | 142 | 0.0 | 1.0 | 0.00 | 0.00 | 0.00 | 82 | 1015.9 |
| 20260903184942 | 62 | 141 | 0.0 | 1.0 | 0.00 | 0.00 | 0.00 | 84 | 1016.0 |
| 20260903183940 | 62 | 139 | 0.0 | 0.0 | 0.00 | 0.00 | 0.00 | 85 | 1016.2 |
| 20260903182942 | 62 | 137 | 0.0 | 1.0 | 0.00 | 0.00 | 0.00 | 86 | 1016.1 |
| 20260903181941 | 62 | 139 | 0.0 | 0.0 | 0.00 | 0.00 | 0.00 | 86 | 1015.9 |
| 20260903180941 | 62 | 144 | 0.0 | 0.0 | 0.00 | 0.00 | 0.00 | 86 | 1016.2 |
| 20260903175941 | 63 | 143 | 0.0 | 1.0 | 0.00 | 0.00 | 0.00 | 84 | 1016.0 |
| 20260903174941 | 64 | 137 | 0.0 | 0.0 | 0.00 | 0.00 | 0.00 | 81 | 1016.1 |
| 20260903173941 | 64 | 137 | 0.0 | 0.0 | 0.00 | 0.00 | 0.00 | 80 | 1016.1 |
| 20260903172943 | 64 | 143 | 0.0 | 0.0 | 0.00 | 0.00 | 0.00 | 78 | 1016.2 |
| 20260903171943 | 65 | 146 | 0.0 | 1.0 | 0.00 | 0.00 | 0.00 | 76 | 1016.2 |
| 20260903170941 | 66 | 136 | 0.0 | 1.0 | 0.00 | 0.00 | 0.00 | 75 | 1016.2 |
| 20260903165942 | 66 | 148 | 0.0 | 2.0 | 0.00 | 0.00 | 0.00 | 71 | 1016.2 |
| 20260903164941 | 67 | 209 | 1.0 | 3.0 | 0.00 | 0.00 | 0.00 | 69 | 1016.2 |
| 20260903163943 | 68 | 151 | 0.0 | 4.0 | 0.00 | 0.00 | 0.00 | 68 | 1016.1 |
| 20260903162943 | 69 | 346 | 4.0 | 8.0 | 0.00 | 0.00 | 0.00 | 66 | 1016.0 |
| 20260903160941 | 70 | 280 | 1.0 | 4.0 | 0.00 | 0.00 | 0.00 | 70 | 1016.1 |
| 20260903155942 | 70 | 142 | 0.0 | 3.0 | 0.00 | 0.00 | 0.00 | 72 | 1016.2 |
| 20260903154941 | 70 | 160 | 1.0 | 7.0 | 0.00 | 0.00 | 0.00 | 69 | 1016.2 |
| 20260903150943 | 71 | 161 | 1.0 | 4.0 | 0.00 | 0.00 | 0.00 | 69 | 1016.6 |
| 20260903145942 | 72 | 180 | 3.0 | 6.0 | 0.00 | 0.00 | 0.00 | 66 | 1016.4 |
| 20260903144941 | 73 | 140 | 2.0 | 8.0 | 0.00 | 0.00 | 0.00 | 67 | 1016.6 |
| 20260903143940 | 72 | 92 | 0.0 | 4.0 | 0.00 | 0.00 | 0.00 | 66 | 1016.9 |
| 20260903142941 | 71 | 127 | 0.0 | 6.0 | 0.00 | 0.00 | 0.00 | 68 | 1016.8 |
| 20260903141943 | 71 | 196 | 2.0 | 4.0 | 0.00 | 0.00 | 0.00 | 68 | 1016.8 |
| 20260903135943 | 72 | 157 | 0.0 | 4.0 | 0.00 | 0.00 | 0.00 | 71 | 1016.8 |
| 20260903134941 | 72 | 185 | 2.0 | 4.0 | 0.00 | 0.00 | 0.00 | 65 | 1017.0 |
| 20260903133940 | 74 | 168 | 1.0 | 3.0 | 0.00 | 0.00 | 0.00 | 67 | 1017.0 |
| 20260903132941 | 73 | 160 | 0.0 | 6.0 | 0.00 | 0.00 | 0.00 | 66 | 1017.3 |
| 20260903131954 | 73 | 167 | 1.0 | 3.0 | 0.00 | 0.00 | 0.00 | 65 | 1017.0 |
| 20260903130944 | 72 | 193 | 2.0 | 8.0 | 0.00 | 0.00 | 0.00 | 66 | 1017.5 |
| 20260903123934 | 73 | 107 | 0.0 | 4.0 | 0.00 | 0.00 | 0.00 | 66 | 1017.5 |
| 20260903122934 | 73 | 143 | 0.0 | 3.0 | 0.00 | 0.00 | 0.00 | 64 | 1017.4 |
| 20260903121935 | 73 | 205 | 1.0 | 3.0 | 0.00 | 0.00 | 0.00 | 64 | 1017.6 |
| 20260903120939 | 72 | 202 | 1.0 | 4.0 | 0.00 | 0.00 | 0.00 | 64 | 1017.8 |
| 20260903114933 | 73 | 0 | 3.0 | 6.0 | 0.00 | 0.00 | 0.00 | 63 | 1018.0 |
| 20260903113934 | 73 | 143 | 1.0 | 4.0 | 0.00 | 0.00 | 0.00 | 65 | 1017.9 |
| 20260903112934 | 73 | 125 | 0.0 | 3.0 | 0.00 | 0.00 | 0.00 | 67 | 1018.1 |
| 20260903111934 | 71 | 196 | 1.0 | 4.0 | 0.00 | 0.00 | 0.00 | 66 | 1018.1 |
| 20260903110937 | 73 | 94 | 1.0 | 3.0 | 0.00 | 0.00 | 0.00 | 66 | 1018.4 |
| 20260903105935 | 73 | 174 | 1.0 | 4.0 | 0.00 | 0.00 | 0.00 | 65 | 1018.3 |
| 20260903104934 | 72 | 223 | 2.0 | 7.0 | 0.00 | 0.00 | 0.00 | 63 | 1018.4 |
| 20260903103935 | 74 | 155 | 1.0 | 6.0 | 0.00 | 0.00 | 0.00 | 67 | 1018.6 |
| 20260903102934 | 72 | 65 | 1.0 | 6.0 | 0.00 | 0.00 | 0.00 | 63 | 1018.6 |
| 20260903101934 | 71 | 155 | 0.0 | 6.0 | 0.00 | 0.00 | 0.00 | 65 | 1018.6 |
| 20260903100935 | 72 | 195 | 3.0 | 6.0 | 0.00 | 0.00 | 0.00 | 64 | 1018.6 |
| 20260903094934 | 72 | 79 | 1.0 | 6.0 | 0.00 | 0.00 | 0.00 | 66 | 1018.8 |
| 20260903092935 | 72 | 90 | 1.0 | 6.0 | 0.00 | 0.00 | 0.00 | 64 | 1018.9 |
| 20260903091934 | 70 | 68 | 1.0 | 2.0 | 0.00 | 0.00 | 0.00 | 68 | 1019.3 |
| 20260903090935 | 71 | 150 | 0.0 | 4.0 | 0.00 | 0.00 | 0.00 | 69 | 1019.3 |
| 20260903085934 | 70 | 144 | 1.0 | 6.0 | 0.00 | 0.00 | 0.00 | 69 | 1019.1 |
| 20260903084937 | 70 | 247 | 2.0 | 6.0 | 0.00 | 0.00 | 0.00 | 69 | 1019.3 |
| 20260903082939 | 70 | 76 | 1.0 | 6.0 | 0.00 | 0.00 | 0.00 | 74 | 1019.6 |
| 20260903081934 | 69 | 168 | 0.0 | 4.0 | 0.00 | 0.00 | 0.00 | 72 | 1019.5 |
| 20260903080934 | 69 | 204 | 1.0 | 4.0 | 0.00 | 0.00 | 0.00 | 76 | 1019.5 |
| 20260903074933 | 67 | 162 | 1.0 | 4.0 | 0.00 | 0.00 | 0.00 | 78 | 1019.4 |
| 20260903073934 | 68 | 171 | 1.0 | 4.0 | 0.00 | 0.00 | 0.00 | 78 | 1019.4 |
| 20260903072936 | 67 | 123 | 0.0 | 3.0 | 0.00 | 0.00 | 0.00 | 79 | 1019.4 |
| 20260903071933 | 66 | 134 | 1.0 | 3.0 | 0.00 | 0.00 | 0.00 | 81 | 1019.6 |
| 20260903070935 | 65 | 163 | 0.0 | 2.0 | 0.00 | 0.00 | 0.00 | 83 | 1019.4 |
| 20260903065934 | 62 | 180 | 1.0 | 3.0 | 0.00 | 0.00 | 0.00 | 87 | 1019.3 |
| 20260903063935 | 59 | 162 | 1.0 | 1.0 | 0.00 | 0.00 | 0.00 | 99 | 1019.2 |
| 20260903062935 | 58 | 137 | 0.0 | 2.0 | 0.00 | 0.00 | 0.00 | 99 | 1019.2 |
| 20260903061934 | 58 | 154 | 1.0 | 2.0 | 0.00 | 0.00 | 0.00 | 99 | 1019.4 |
| 20260903054935 | 55 | 141 | 0.0 | 0.0 | 0.00 | 0.00 | 0.00 | 99 | 1019.3 |
| 20260903053934 | 54 | 141 | 0.0 | 0.0 | 0.00 | 0.00 | 0.00 | 99 | 1019.2 |
| 20260903052934 | 53 | 136 | 0.0 | 0.0 | 0.00 | 0.00 | 0.00 | 99 | 1019.6 |
| 20260903051933 | 52 | 141 | 0.0 | 0.0 | 0.00 | 0.00 | 0.00 | 99 | 1019.3 |
| 20260903050939 | 51 | 141 | 0.0 | 0.0 | 0.00 | 0.00 | 0.00 | 99 | 1019.2 |
| 20260903044934 | 49 | 141 | 0.0 | 0.0 | 0.00 | 0.00 | 0.00 | 99 | 1019.4 |
| 20260903042934 | 47 | 141 | 0.0 | 0.0 | 0.00 | 0.00 | 0.00 | 99 | 1019.5 |
| 20260903041935 | 47 | 141 | 0.0 | 0.0 | 0.00 | 0.00 | 0.00 | 99 | 1019.2 |
| 20260903035934 | 47 | 141 | 0.0 | 0.0 | 0.00 | 0.00 | 0.00 | 99 | 1019.4 |
| 20260903034934 | 47 | 141 | 0.0 | 0.0 | 0.00 | 0.00 | 0.00 | 99 | 1019.5 |
| 20260903033935 | 47 | 141 | 0.0 | 0.0 | 0.00 | 0.00 | 0.00 | 99 | 1019.5 |
| 20260903032934 | 47 | 141 | 0.0 | 0.0 | 0.00 | 0.00 | 0.00 | 99 | 1019.2 |
| 20260903031934 | 48 | 140 | 0.0 | 0.0 | 0.00 | 0.00 | 0.00 | 99 | 1019.3 |
| 20260903030934 | 48 | 141 | 0.0 | 0.0 | 0.00 | 0.00 | 0.00 | 99 | 1019.5 |